Погода в Яе

Россия / Кемеровская область (Кузбасс)     56°12′20″N   86°27′04″E
темп.,
°C
ветер,
м/с
пор.,
м/с
влажн.,
%
обл.,
%
осадки,
мм/ч
давл.,
гПа
погр.,
м
23 апреля, пт
пт2301:00−3ссв26945 0.0 1044116
04:00−3св26935 0.0 1044111
07:00−2св38895 0.0 1045219
10:00+2св47659 0.0 10451002
13:00+5св6855100 0.1 10431756
16:00+6св6852100 0.0 10421760
19:00+4ссв596692 0.1 1042309
22:000ссв410855 0.0 1042190
24 апреля, сб
сб2401:00−1св39902 0.0 1041173
04:00−2ссв399193 0.0 1039186
07:00−1ссв41086100 0.0 1037344
10:00+2ссв5973100 0.0 1035599
13:00+5ссв5657100 0.0 10331549
16:00+6с5654100 0.1 10321527
19:00+5с366898 0.2 1031472
22:00+2ссз368379 0.0 1032135
25 апреля, вс
вс2501:000ссз228675 0.0 103126
04:000зсз2286100 0.0 103235
07:000зсз238278 0.0 1032122
10:00+4зсз346494 0.0 1032733
13:00+6зсз3457100 0.1 10311284
16:00+8з3452100 0.1 10301520
19:00+7з345525 0.1 1030768
22:00+4зюз12747 0.0 103110
26 апреля, пн
пн2601:00+2зюз22815 0.0 103116
04:00+1юз22815 0.0 103113
07:00+2ююз23785 0.0 103184
10:00+7ююз23585 0.0 1030583
13:00+10ююз334777 0.0 10291627
16:00+11ю334297 0.0 10271944
19:00+10ю455395 0.0 1026963
22:00+6ююв387171 0.0 1025176
27 апреля, вт
вт2701:00+4ююв41177100 0.0 1023234
04:00+4ююв4127491 0.0 1020269
07:00+5ю51469100 0.0 1018532
10:00+7ююз697931 2.6 1016588
13:00+11з8115160 3.4 10171989
16:00+12зсз7104567 0.1 10172263
19:00+11зсз595430 0.4 10181281
22:00+8зюз3560100 0.0 1016105